Vorticity
5 5 2 3 4 6 6 0 4 -2 12 10 7 4 5 1 9 10 3 7 5 4 3 4 4 3 5 4 3 3 11 5 0 7 4 3 2 11
3 6 4 5 2 1 11 12 -8 10 9 -4 10 11 6 -3 4 2 7 9 6 8 4 6 3 5 7 0 4 8 2 1 4 3 0 4 8 10
5 2 6 5 8 3 5 -9 7 7 0 9 15 3 8 13 -0 8 4 3 5 8 9 1 5 0 5 1 10 -0 9 7 3 -2 7 5 10 8
9 -1 -18 -3 0 17 11 5 -2 5 14 18 15 14 -2 -1 11 11 4 11 10 9 -2 6 6 -3 5 4 1 8 12 5 -1 -4 11 10 7 6
6 9 22 -8 21 -17 15 3 -13 32 10 0 3 5 -7 10 10 15 7 5 5 0 1 7 1 7 3 1 18 12 4 1 4 6 11 8 7 7
7 3 22 3 -11 27 24 25 4 8 6 13 -9 7 0 12 10 11 9 6 2 8 5 3 7 7 7 7 10 7 3 3 -1 7 11 3 7 9
2 -21 12 -0 3 -16 19 1 9 10 4 7 2 5 -0 9 2 5 8 1 3 6 5 -4 6 1 9 8 7 2 -0 -2 4 8 10 8 16 10
4 21 15 10 -6 17 5 2 7 14 28 12 15 17 18 14 9 4 5 5 -1 3 3 1 -1 3 16 10 18 10 6 13 5 15 9 10 11 10
7 7 7 4 7 9 12 9 12 12 15 -9 13 9 7 8 10 13 5 5 4 8 8 8 9 -0 6 11 7 7 14 7 13 8 10 6 10 8
14 10 11 12 14 11 13 13 8 17 2 4 12 -3 5 16 13 15 12 15 15 17 10 2 4 10 11 3 1 8 13 10 11 9 10 10 11 8
9 9 9 7 7 4 7 7 5 11 -13 15 10 13 7 5 11 16 18 4 11 -0 5 9 -17 13 12 11 11 11 9 9 12 12 6 10 7 4
13 11 12 11 8 8 8 7 4 13 11 7 -3 8 5 -5 3 21 9 11 12 22 16 14 10 16 13 10 10 12 12 9 6 9 11 9 5 4
-1 -2 -2 4 8 10 11 8 14 18 17 15 7 16 14 15 24 12 12 7 27 4 10 8 9 9 9 11 10 12 11 8 11 15 12 5 7 6
3 11 10 15 14 10 13 6 14 17 17 14 15 9 9 10 9 -2 9 6 -3 12 13 13 11 14 11 12 10 12 12 12 12 6 5 5 5 8
9 12 10 -0 3 5 14 14 14 16 13 13 7 -3 3 13 -6 6 26 21 11 12 14 15 14 9 7 9 16 12 11 11 7 4 5 6 7 9
8 -2 9 10 3 1 12 12 6 8 9 9 14 20 9 11 8 14 13 11 5 5 5 10 9 13 18 10 13 9 9 3 4 6 6 7 9 12
-1 10 15 14 12 18 8 9 15 16 10 13 14 14 13 8 5 5 10 13 13 12 13 12 17 12 9 8 7 6 4 5 6 3 10 8 13 14
17 20 12 12 10 18 23 21 9 7 10 7 10 11 9 7 12 4 9 8 10 12 17 11 9 9 5 6 2 3 7 8 8 8 10 8 15 14
16 21 21 21 20 15 10 6 1 5 15 14 8 1 2 13 10 5 7 11 15 14 8 10 6 10 9 6 5 10 7 9 10 11 10 14 17 11
4 4 6 10 3 4 7 6 6 3 2 6 4 7 16 15 12 7 7 14 12 6 7 7 9 5 5 4 6 8 6 7 10 11 16 13 8 8
5 3 4 6 7 7 11 10 9 8 9 11 12 15 13 9 7 8 8 9 6 10 12 9 6 6 4 4 9 8 7 11 16 18 16 9 8 6
5 9 10 9 8 8 10 9 13 12 14 14 13 10 10 9 10 7 5 10 10 6 6 8 4 4 4 9 12 9 5 17 16 12 8 8 7 7
8 10 9 7 12 10 11 10 10 10 11 11 12 10 7 6 9 12 8 4 3 8 8 6 9 4 7 8 7 8 14 19 14 8 7 4 3 11
Height
5807 5810 5813 5815 5817 5819 5820 5821 5822 5823 5824 5824 5824 5824 5825 5824 5825 5823 5823 5822 5821 5819 5817 5816 5814 5812 5810 5807 5804 5802 5799 5796 5792 5788 5784 5780 5777 5772
5798 5801 5803 5806 5808 5810 5810 5812 5813 5814 5815 5815 5814 5814 5815 5815 5816 5813 5813 5812 5811 5810 5808 5807 5804 5802 5800 5798 5795 5792 5789 5785 5781 5777 5773 5769 5765 5760
5788 5791 5794 5796 5797 5799 5801 5802 5803 5804 5805 5805 5804 5805 5805 5805 5805 5804 5803 5802 5801 5800 5798 5797 5794 5792 5790 5787 5784 5781 5778 5774 5770 5765 5761 5757 5752 5747
5776 5780 5784 5785 5787 5787 5790 5791 5792 5794 5794 5794 5794 5794 5794 5794 5794 5793 5792 5791 5790 5789 5788 5786 5784 5781 5778 5776 5773 5769 5766 5762 5758 5753 5748 5744 5738 5733
5763 5766 5770 5774 5777 5776 5778 5780 5781 5781 5783 5783 5783 5784 5783 5782 5781 5781 5781 5780 5778 5778 5776 5774 5772 5769 5766 5763 5759 5756 5752 5749 5745 5739 5734 5729 5723 5717
5751 5753 5756 5758 5762 5765 5765 5766 5768 5769 5771 5772 5771 5771 5771 5770 5769 5769 5769 5769 5766 5765 5763 5761 5759 5756 5753 5749 5745 5742 5738 5734 5730 5726 5720 5714 5707 5702
5737 5741 5744 5745 5749 5751 5752 5753 5755 5756 5758 5759 5758 5758 5757 5757 5756 5755 5755 5755 5753 5751 5750 5747 5744 5742 5739 5735 5731 5728 5724 5719 5715 5710 5704 5698 5692 5686
5723 5727 5728 5731 5734 5737 5739 5740 5743 5744 5744 5744 5743 5744 5744 5743 5742 5741 5740 5739 5738 5738 5734 5732 5731 5727 5724 5720 5716 5713 5708 5704 5699 5693 5687 5681 5675 5670
5710 5713 5716 5719 5722 5724 5726 5727 5729 5730 5730 5730 5730 5730 5731 5730 5730 5730 5727 5725 5723 5722 5721 5718 5714 5712 5708 5704 5699 5696 5691 5687 5682 5676 5670 5665 5660 5654
5696 5699 5701 5704 5707 5710 5711 5713 5715 5717 5717 5716 5716 5716 5716 5716 5715 5714 5713 5711 5708 5706 5704 5702 5697 5695 5691 5687 5682 5678 5674 5670 5665 5660 5655 5650 5644 5639
5681 5685 5688 5691 5694 5695 5697 5699 5701 5702 5701 5702 5702 5702 5701 5700 5699 5697 5697 5696 5693 5691 5688 5687 5682 5679 5676 5671 5665 5662 5658 5654 5650 5645 5639 5634 5630 5623
5668 5670 5673 5676 5678 5680 5682 5683 5684 5685 5685 5685 5686 5686 5685 5684 5683 5681 5681 5679 5677 5673 5671 5670 5666 5662 5660 5655 5651 5647 5642 5638 5634 5629 5624 5619 5614 5607
5653 5656 5658 5660 5664 5665 5666 5667 5668 5668 5668 5668 5667 5666 5665 5664 5664 5664 5663 5662 5660 5657 5653 5652 5650 5646 5643 5640 5634 5631 5627 5623 5619 5614 5609 5603 5596 5591
5637 5639 5641 5645 5646 5646 5648 5649 5649 5650 5650 5651 5650 5650 5649 5648 5647 5646 5645 5644 5643 5641 5638 5635 5633 5630 5626 5623 5618 5614 5611 5607 5603 5597 5592 5586 5578 5572
5620 5621 5624 5627 5629 5631 5631 5631 5633 5633 5634 5635 5635 5634 5634 5633 5631 5629 5628 5627 5626 5623 5621 5619 5616 5614 5611 5608 5603 5595 5594 5588 5584 5580 5575 5567 5559 5551
5602 5604 5608 5611 5613 5613 5616 5617 5618 5619 5619 5619 5619 5618 5617 5616 5615 5614 5613 5611 5609 5609 5606 5603 5600 5597 5594 5592 5588 5581 5577 5573 5565 5561 5558 5550 5540 5533
5585 5587 5591 5594 5595 5597 5599 5601 5602 5603 5603 5603 5603 5602 5602 5600 5599 5598 5597 5595 5593 5591 5590 5587 5586 5583 5580 5576 5573 5568 5561 5556 5551 5545 5540 5534 5525 5515
5568 5571 5575 5576 5578 5581 5583 5583 5585 5586 5587 5587 5587 5587 5586 5584 5583 5582 5581 5579 5576 5574 5573 5572 5570 5567 5565 5560 5557 5551 5542 5539 5533 5527 5520 5517 5511 5501
5551 5554 5557 5559 5561 5563 5566 5567 5569 5570 5570 5571 5570 5569 5569 5568 5568 5566 5564 5564 5562 5559 5557 5555 5553 5550 5548 5545 5540 5533 5527 5518 5515 5508 5501 5496 5493 5487
5535 5538 5541 5544 5546 5548 5550 5550 5552 5554 5554 5555 5554 5552 5551 5551 5551 5550 5548 5548 5547 5544 5542 5538 5534 5531 5531 5528 5526 5516 5505 5503 5497 5491 5485 5480 5473 5468
5519 5522 5525 5528 5530 5532 5533 5534 5535 5537 5537 5537 5536 5535 5535 5535 5534 5534 5533 5531 5531 5529 5526 5521 5515 5513 5513 5510 5507 5500 5491 5481 5476 5472 5468 5461 5457 5454
5503 5506 5509 5512 5514 5516 5517 5518 5519 5520 5521 5521 5519 5520 5520 5519 5519 5518 5516 5514 5513 5513 5509 5503 5498 5494 5493 5490 5486 5481 5475 5468 5459 5452 5445 5439 5436 5433
5486 5489 5492 5494 5497 5498 5500 5502 5502 5503 5504 5503 5504 5504 5505 5504 5504 5503 5501 5499 5496 5492 5489 5487 5483 5479 5474 5469 5465 5462 5456 5449 5443 5438 5432 5420 5414 5409